{"data":{"norad_id":68408,"intl_designator":"2026-065A","name":"LPNTSAT-001 (IOD-1)","alt_names":[],"object_type":"PAYLOAD","status":"ACTIVE","operator":null,"country":"ESA","launch_date":"2026-03-28","launch_site_code":"RLLB","launch_vehicle":null,"mission":null,"orbit_class":"UNKNOWN","rcs_meters":null,"size_class":null,"mass_kg":null,"dimensions":null,"purposes":[],"wikipedia_slug":null,"has_3d_model":false,"image_url":null,"decayed_at":null,"tle_current":{"epoch":"2026-09-20T02:01:27.338016Z","epoch_age_seconds":105683,"freshness":"FRESH","line1":"1 68408U 26065A   26263.08434419  .00001701  00000+0  84409-4 0  9994","line2":"2 68408  97.3854 141.5306 0017391  38.0278 322.2181 15.18931333 26669","mean_motion":15.18931333,"eccentricity":0.0017391,"inclination_deg":97.3854,"raan_deg":141.5306,"arg_perigee_deg":38.0278,"mean_anomaly_deg":322.2181,"bstar":8.4409e-5,"rev_number":2666,"period_min":94.803495636363,"perigee_km":497.09157911493,"apogee_km":521.046659439,"semimajor_km":6887.206119277,"source":"CELESTRAK","updated_at":"2026-09-20T09:00:24.195831Z"}}}